User: anonymous   Login
Location: Unspecified
(0.0000°N, 0.0000°E)
Time: 22:05:37
(UTC+00:00)
Language:

USA 229 - Orbit

View from above orbital plane
View from above orbital plane
View from above satellite
View from above satellite

Ground track
Ground track

The orbit data is extracted from the following two-line orbital elements,

1 37386U 11014A   19112.85179688 0.00000000  00000-0  00000-0 0    03
2 37386  63.4392  99.5477 0131442   0.1811 359.8189 13.40776036    03
Epoch (UTC): 22 April 2019 20:26:35
Eccentricity: 0.0131442
inclination: 63.4392°
perigee height: 1008 km
apogee height: 1205 km
right ascension of ascending node: 99.5477°
argument of perigee: 0.1811°
revolutions per day: 13.40776036
mean anomaly at epoch: 359.8189°
orbit number at epoch: 0

The dashed part of the orbit path shows where the satellite is in the earth's shadow,  

DLR